ROMMA est une association bénévole à but non lucratif. Votre soutien est indispensable : ADHERER à ROMMA ou FAIRE un DON

Chambon - (38, Isère)

Oisans (2460 m)   Longitude: 06° 10' 42" E   Latitude: 45° 01' 32" N Station partenaire n°803
 

Détail journalier du     <<     >>

Température Humidité Vent Dir Rafale Dir. rafale Neige 1 Neige 2
Heure (°C) (%) (km/h) (km/h) (cm) (cm)
01:00 5.01004NNE10NNE024
02:00 5.4994NNE10ENE10
03:00 5.8903ENE9ENE225
04:00 6.2832ESE4S229
05:00 6.2852NE5NE131
06:00 6.4811N5NE10
07:00 6.6771NE4NE10
08:00 6.9741E3E10
09:00 9.6713NE9NE10
10:00 9.8709NE15NE11
11:00 11.7667NNE15NE20
12:00 12.0574NNE11NNE00
13:00 12.3604NE10OSO10
14:00 13.4612N9N00
15:00 12.5617N19O00
16:00 12.46212OSO22O01
17:00 12.56212O23O00
18:00 11.76711O21O00
19:00 12.5656O17O00
20:00 10.4747OSO13OSO00
21:00 9.8838SO13SO00
22:00 9.6845NE9NE00
23:00 9.2865NNE31NNE00
minuit 9.2844NNE20NNE00

Graphique du 21-08-2019

 

Serveur OMMA